Location: Champs
(48.8539°N, 2.6040°E)
Time: 10:44:16
(UTC+00:00)

USA 308 - Pass Details

Date: 28 May 2022
Orbit: 549 x 558 km, 54.0° (Epoch: 14 June)

Event Time Altitude Azimuth Distance (km) Brightness Sun altitude
Exits shadow 00:32:41 48° 208° (SSW) 731 3.0 -19.0°
Maximum altitude 00:33:39 67° 147° (SSE) 607 2.8 -18.9°
Drops below altitude 10° 00:37:52 10° 65° (ENE) 1,866 6.0 -18.8°
Sets 00:40:05 0° 63° (ENE) 2,750 7.0 -18.7°
